Weather History for Roanoke, VA

Change the Weather History Date:

Thursday, October 10, 2013

  Actual Average Record
Temperature  
Mean Temperature 59 °F 59 °F  
Max Temperature 67 °F 70 °F 90 °F (1939)
Min Temperature 51 °F 48 °F 30 °F (1917)
Degree Days  
Heating Degree Days 6 7  
Month to date heating degree days 25 55  
Since 1 July heating degree days 59 104  
Cooling Degree Days 0 1  
Month to date cooling degree days 36 12  
Year to date cooling degree days 1223 1198  
Growing Degree Days 8 (Base 50)    
Moisture  
Dew Point 51 °F    
Average Humidity 78    
Maximum Humidity 89    
Minimum Humidity 66    
Precipitation  
Precipitation 0.11 in 0.10 in 2.06 in (1990)
Month to date precipitation 2.12 0.92  
Year to date precipitation 45.56 32.94  
Snow  
Snow 0.00 in - - ()
Month to date snowfall 0.0  
Since 1 July snowfall 0.0  
Since 1 September snowfall 0.0  
Snow Depth 0.00 in    
Sea Level Pressure  
Sea Level Pressure 30.12 in    
Wind  
Wind Speed 8 mph (NNE)    
Max Wind Speed 16 mph    
Max Gust Speed 20 mph    
Visibility 10 miles    
Events Rain    
T = Trace of Precipitation, MM = Missing Value Source: NWS Daily Summary

Daily Weather History Graph

Daily Weather History Graph

Search for Another Location

Airport:

Trip Planner

Search our weather history database for the weather conditions in past years. The results will help you decide how hot, cold, wet, or windy it might be!

Date:

Astronomy

Oct. 10, 2013 Rise Set
Actual Time 7:23 AM EDT 6:49 PM EDT
Civil Twilight 6:57 AM EDT 7:15 PM EDT
Nautical Twilight 6:27 AM EDT 7:45 PM EDT
Astronomical Twilight 5:56 AM EDT 8:16 PM EDT
Moon 1:08 PM EDT (10/10) 11:30 PM EDT (10/10)
Length of Visible Light 12h 18m
Length of Day
11h 26m
Waxing Crescent, 35% of the Moon is Illuminated
Oct 10
Waxing Crescent
Oct 11
First Quarter
Oct 18
Full
Oct 26
Last Quarter
Nov 3
New

Hourly Weather History & Observations

Time (EDT) Temp. Dew Point Humidity Pressure Visibility Wind Dir Wind Speed Gust Speed Precip Events Conditions
12:54 AM 54.0 °F 42.1 °F 64% 30.19 in 10.0 mi North 9.2 mph - N/A   Overcast
1:54 AM 53.1 °F 44.1 °F 71% 30.18 in 10.0 mi NNE 13.8 mph - 0.00 in Rain Light Rain
2:54 AM 51.1 °F 46.0 °F 83% 30.17 in 7.0 mi NNE 15.0 mph - 0.03 in Rain Light Rain
3:54 AM 51.1 °F 48.0 °F 89% 30.16 in 10.0 mi North 10.4 mph - 0.01 in   Overcast
4:54 AM 51.1 °F 48.0 °F 89% 30.15 in 5.0 mi North 10.4 mph - 0.00 in Rain Light Rain
5:54 AM 51.1 °F 48.0 °F 89% 30.15 in 9.0 mi North 10.4 mph - 0.02 in Rain Light Rain
6:54 AM 51.1 °F 48.0 °F 89% 30.15 in 10.0 mi North 11.5 mph - 0.03 in   Mostly Cloudy
7:54 AM 52.0 °F 48.0 °F 86% 30.16 in 10.0 mi North 8.1 mph - 0.02 in Rain Light Rain
8:06 AM 51.8 °F 48.2 °F 88% 30.17 in 10.0 mi North 8.1 mph - 0.00 in Rain Light Rain
8:13 AM 51.8 °F 48.2 °F 88% 30.17 in 10.0 mi NNW 8.1 mph - 0.00 in Rain Light Rain
8:54 AM 52.0 °F 48.9 °F 89% 30.17 in 10.0 mi NNW 8.1 mph - 0.00 in Rain Light Rain
9:01 AM 51.8 °F 48.2 °F 88% 30.17 in 10.0 mi North 8.1 mph - 0.00 in   Overcast
9:08 AM 51.8 °F 48.2 °F 88% 30.17 in 10.0 mi NNW 9.2 mph - 0.00 in   Mostly Cloudy
9:54 AM 53.1 °F 50.0 °F 89% 30.17 in 10.0 mi North 9.2 mph - 0.00 in   Overcast
10:19 AM 53.6 °F 50.0 °F 88% 30.17 in 10.0 mi North 8.1 mph - N/A   Overcast
10:54 AM 55.9 °F 51.1 °F 84% 30.16 in 10.0 mi NNE 5.8 mph - N/A   Overcast
11:54 AM 55.9 °F 52.0 °F 87% 30.15 in 10.0 mi North 4.6 mph - 0.00 in Rain Light Rain
12:54 PM 57.9 °F 53.1 °F 84% 30.13 in 10.0 mi Calm Calm - 0.00 in   Overcast
1:54 PM 61.0 °F 55.0 °F 81% 30.10 in 10.0 mi Variable 3.5 mph - N/A   Overcast
2:54 PM 66.9 °F 55.9 °F 68% 30.07 in 10.0 mi NNE 5.8 mph - N/A   Overcast
3:54 PM 66.0 °F 55.9 °F 70% 30.06 in 10.0 mi ENE 5.8 mph - N/A   Overcast
4:54 PM 66.9 °F 55.9 °F 68% 30.05 in 10.0 mi NE 6.9 mph - N/A   Mostly Cloudy
5:54 PM 66.0 °F 55.9 °F 70% 30.04 in 10.0 mi NNE 9.2 mph - N/A   Mostly Cloudy
6:54 PM 66.0 °F 55.9 °F 70% 30.04 in 10.0 mi NNE 8.1 mph - N/A   Mostly Cloudy
7:54 PM 64.9 °F 55.9 °F 73% 30.04 in 10.0 mi NNE 6.9 mph - N/A   Overcast
8:54 PM 64.0 °F 55.0 °F 73% 30.04 in 10.0 mi NNE 6.9 mph - N/A   Overcast
9:54 PM 64.0 °F 55.0 °F 73% 30.03 in 10.0 mi NNE 11.5 mph - N/A   Overcast
10:54 PM 64.0 °F 55.0 °F 73% 30.02 in 10.0 mi NNE 9.2 mph - N/A   Mostly Cloudy
11:54 PM 61.0 °F 55.0 °F 81% 30.01 in 10.0 mi ENE 4.6 mph - N/A   Mostly Cloudy